Terug naar catalogus

STARLINK-5446

ActiefCommunicatieVLEO
NORAD 54789·PAYLOAD·🇺🇸 United States

Gelanceerd Dec 17, 2022 vanaf Cape Canaveral Space Force Station

Loading…

Volgende Passages (komende 24 uur)

TLE

VersSource: CelesTrak SupGP

Epoch: Sep 14, 2026, 13:51 UTC

1 54789C 22175AH  26257.57756944  .00474090  00000+0  19359-1 0  2577
2 54789  53.1589 244.5060 0001257  86.0734  95.6216 15.23632815    16

Volg STARLINK-5446 in realtime met AllMySat

Download on the App Store